"2016-06-16 00:00:00",1726491,7.339,121.6,1.631,0.264,25.22,111.0004,27.47,28.45,13.55,0,111.4,12.99,28.31,83.6
"2016-06-16 00:00:30",1726492,7.275,121.6,3.904,0.336,25.29,111.0007,27.47,28.44,13.75,0,111.4,12.99,28.31,83.6
"2016-06-16 00:01:00",1726493,7.238,107.7,7.193,0.471,25.31,110.9998,27.46,28.44,14.04,0,111.4,12.99,28.31,69.7
"2016-06-16 00:01:30",1726494,7.733,101.6,4.768,0.327,25.23,111.0001,27.47,28.44,14.43,0,111.4,12.99,28.31,63.6
"2016-06-16 00:02:00",1726495,7.595,109,2.02,0.291,25.22,111.0004,27.47,28.45,14.57,0,111.4,12.99,28.31,71.0
"2016-06-16 00:02:30",1726496,7.96,108.7,2.724,0.223,25.16,111.0002,27.47,28.44,14.38,0,111.4,12.99,28.31,70.7
"2016-06-16 00:03:00",1726497,7.644,102.9,2.311,0.331,25.23,110.9988,27.46,28.45,14.38,0,111.4,12.98,28.31,64.9
"2016-06-16 00:03:30",1726498,7.599,98.5,1.695,0.141,25.27,110.9929,27.45,28.43,14.57,0,111.4,12.99,28.29,60.5
"2016-06-16 00:04:00",1726499,7.766,104.7,2.32,0.281,25.22,110.9775,27.41,28.43,14.53,0,111.4,12.98,28.25,66.7
"2016-06-16 00:04:30",1726500,7.031,105,1.779,0.235,25.17,110.9741,27.4,28.41,14.56,0,111.4,12.99,28.25,67.0
"2016-06-16 00:05:00",1726501,7.338,106.3,1.818,0.24,25.2,110.9674,27.38,28.4,14.33,0,111.4,12.99,28.23,68.3
"2016-06-16 00:05:30",1726502,6.737,106.3,4.249,0.461,25.21,110.9671,27.38,28.41,15.05,0,111.4,12.99,28.23,68.3
"2016-06-16 00:06:00",1726503,6.607,112.3,1.201,0.141,25.15,110.9674,27.38,28.4,14.38,0,111.4,12.99,28.23,74.3
"2016-06-16 00:06:30",1726504,6.779,112.1,2.521,0.481,25.14,110.9671,27.38,28.39,15.06,0,111.4,12.99,28.23,74.1
"2016-06-16 00:07:00",1726505,7.001,112.7,1.215,0.335,25.15,110.9657,27.38,28.38,14.22,0,111.4,12.99,28.22,74.7
"2016-06-16 00:07:30",1726506,6.945,111.5,2.419,0.251,25.21,110.9581,27.36,28.38,13.98,0,111.4,12.99,28.20,73.5
"2016-06-16 00:08:00",1726507,8.03,111.5,2.159,0.257,25.18,110.9472,27.33,28.36,13.89,0,111.4,12.98,28.18,73.5
"2016-06-16 00:08:30",1726508,7.623,109.4,2.315,0.37,25.17,110.9433,27.32,28.36,13.84,0,111.4,12.98,28.17,71.4
"2016-06-16 00:09:00",1726509,7.291,113,3.426,0.303,25.21,110.9397,27.31,28.34,14.18,0,111.4,12.98,28.16,75.0
"2016-06-16 00:09:30",1726510,7.343,113.8,1.663,0.253,25.19,110.936,27.3,28.35,13.96,0,111.4,12.98,28.15,75.8
"2016-06-16 00:10:00",1726511,7.307,116.8,1.788,0.308,25.23,110.9334,27.29,28.34,14.33,0,111.4,12.98,28.14,78.8
"2016-06-16 00:10:30",1726512,6.796,117,1.11,0.285,25.24,110.9337,27.29,28.34,13.94,0,111.4,12.98,28.14,79.0
"2016-06-16 00:11:00",1726513,6.8,119.9,1.885,0.466,25.26,110.9334,27.29,28.33,13.85,0,111.4,12.98,28.14,81.9
"2016-06-16 00:11:30",1726514,6.656,112.1,3.841,0.501,25.22,110.9344,27.3,28.33,14.28,0,111.4,12.98,28.14,74.1
"2016-06-16 00:12:00",1726515,7.326,111.4,3.7,0.363,25.21,110.9337,27.29,28.32,14.32,0,111.4,12.98,28.14,73.4
"2016-06-16 00:12:30",1726516,7.32,111.6,2.14,0.302,25.29,110.9334,27.29,28.33,14.19,0,111.4,12.98,28.14,73.6
"2016-06-16 00:13:00",1726517,7.198,114.6,3.825,0.279,25.25,110.9337,27.29,28.32,14.09,0,111.4,12.98,28.14,76.6
"2016-06-16 00:13:30",1726518,7.409,114.5,4.772,0.408,25.25,110.9334,27.29,28.3,14.07,0,111.4,12.98,28.14,76.5
"2016-06-16 00:14:00",1726519,7.299,112.4,3.364,0.627,25.24,110.9334,27.29,28.31,14.12,0,111.4,12.98,28.14,74.4
"2016-06-16 00:14:30",1726520,5.837,110.6,5.533,0.328,25.12,110.9337,27.29,28.31,14.59,0,111.4,12.98,28.14,72.6
"2016-06-16 00:15:00",1726521,6.743,114.5,1.826,0.637,25.22,110.9334,27.29,28.32,14.94,0,111.4,12.99,28.14,76.5
"2016-06-16 00:15:30",1726522,7.11,112.2,3.068,0.242,25.29,110.9337,27.29,28.32,14.01,0,111.4,12.99,28.14,74.2
"2016-06-16 00:16:00",1726523,7.416,114.7,3.151,0.509,25.31,110.934,27.3,28.31,13.98,0,111.4,12.99,28.14,76.7
"2016-06-16 00:16:30",1726524,6.637,118.9,4.161,0.271,25.32,110.9347,27.3,28.31,13.83,0,111.4,12.99,28.14,80.9
"2016-06-16 00:17:00",1726525,7.036,116.4,2.97,0.391,25.27,110.9358,27.3,28.31,13.92,0,111.4,12.99,28.15,78.4
"2016-06-16 00:17:30",1726526,7.083,120.6,1.666,0.205,25.33,110.9369,27.3,28.31,13.7,0,111.4,12.99,28.15,82.6
"2016-06-16 00:18:00",1726527,6.934,115.2,2.149,0.319,25.26,110.9376,27.3,28.3,13.84,0,111.4,12.99,28.15,77.2
"2016-06-16 00:18:30",1726528,6.818,110.8,1.878,0.253,25.27,110.9417,27.31,28.32,14.09,0,111.4,12.99,28.16,72.8
"2016-06-16 00:19:00",1726529,6.563,111.6,5.128,0.36,25.25,110.9427,27.32,28.31,14.02,0,111.4,12.99,28.16,73.6
"2016-06-16 00:19:30",1726530,7.04,109.1,2.254,0.333,25.19,110.9428,27.32,28.32,14.04,0,111.4,12.99,28.17,71.1
"2016-06-16 00:20:00",1726531,7.072,104.5,3.638,0.343,25.27,110.9421,27.32,28.32,14.01,0,111.4,12.99,28.16,66.5
"2016-06-16 00:20:30",1726532,6.954,103.5,2.415,0.314,25.23,110.9437,27.32,28.32,14,0,111.4,12.99,28.17,65.5
"2016-06-16 00:21:00",1726533,7.129,104.4,1.663,0.249,25.31,110.9443,27.32,28.32,13.87,0,111.4,12.99,28.17,66.4
"2016-06-16 00:21:30",1726534,7.158,102.9,1.801,0.282,25.27,110.944,27.32,28.32,13.88,0,111.4,12.99,28.17,64.9
"2016-06-16 00:22:00",1726535,6.858,102.1,2.405,0.294,25.28,110.9443,27.32,28.33,13.89,0,111.4,12.99,28.17,64.1
"2016-06-16 00:22:30",1726536,6.931,103.1,2.106,0.244,25.32,110.9449,27.32,28.33,13.91,0,111.4,12.99,28.17,65.1
"2016-06-16 00:23:00",1726537,6.793,102.9,1.398,0.097,25.27,110.9466,27.33,28.34,14.05,0,111.4,12.99,28.17,64.9
"2016-06-16 00:23:30",1726538,7.145,102.3,0.839,0.419,25.29,110.9466,27.33,28.32,14.08,0,111.4,12.99,28.17,64.3
"2016-06-16 00:24:00",1726539,7.559,100.8,1.1,0.137,25.36,110.9457,27.33,28.32,13.86,0,111.4,12.99,28.17,62.8
"2016-06-16 00:24:30",1726540,7.447,104.2,1.731,0.227,25.33,110.9418,27.32,28.33,13.94,0,111.4,12.99,28.16,66.2
"2016-06-16 00:25:00",1726541,6.624,103.7,1.944,0.21,25.32,110.9424,27.32,28.31,14.01,0,111.4,12.99,28.16,65.7
"2016-06-16 00:25:30",1726542,6.939,106.9,2.084,0.269,25.33,110.9434,27.32,28.32,14.14,0,111.4,12.98,28.17,68.9
"2016-06-16 00:26:00",1726543,7.003,106.1,2.026,0.101,25.39,110.9436,27.32,28.32,14.12,0,111.4,12.98,28.17,68.1
"2016-06-16 00:26:30",1726544,6.832,106.5,2.152,0.2,25.33,110.9462,27.33,28.32,14.17,0,111.4,12.98,28.17,68.5
"2016-06-16 00:27:00",1726545,6.88,103.8,1.575,0.331,25.39,110.9464,27.33,28.3,14,0,111.4,12.98,28.17,65.8
"2016-06-16 00:27:30",1726546,7.422,105.4,1.916,0.288,25.44,110.9489,27.33,28.33,14,0,111.4,12.98,28.18,67.4
"2016-06-16 00:28:00",1726547,7.411,104.8,1.518,0.206,25.39,110.9474,27.33,28.32,14.04,0,111.4,12.98,28.18,66.8
"2016-06-16 00:28:30",1726548,7.166,109.4,3.596,0.246,25.46,110.9487,27.33,28.33,14.02,0,111.4,12.98,28.18,71.4
"2016-06-16 00:29:00",1726549,7.338,111.4,2.145,0.281,25.41,110.949,27.33,28.33,14.18,0,111.4,12.98,28.18,73.4
"2016-06-16 00:29:30",1726550,7.567,111.9,3.085,0.273,25.45,110.9515,27.34,28.34,14.12,0,111.4,12.98,28.19,73.9
"2016-06-16 00:30:00",1726551,7.057,117.5,3.42,0.223,25.48,110.9545,27.35,28.33,13.94,0,111.4,12.98,28.20,79.5
"2016-06-16 00:30:30",1726552,7.083,114,1.124,0.155,25.5,110.9579,27.36,28.33,13.83,0,111.4,12.98,28.20,76.0
"2016-06-16 00:31:00",1726553,7.247,114.3,2.749,0.241,25.48,110.9691,27.39,28.33,13.65,0,111.4,12.98,28.23,76.3
"2016-06-16 00:31:30",1726554,7.413,109.6,2.35,0.201,25.44,110.9762,27.4,28.35,13.73,0,111.4,12.98,28.25,71.6
"2016-06-16 00:32:00",1726555,7.227,110.1,1.648,0.303,25.47,110.9764,27.4,28.35,13.84,0,111.4,12.98,28.25,72.1
"2016-06-16 00:32:30",1726556,7.431,110,2.015,0.256,25.49,110.9764,27.4,28.35,13.85,0,111.4,12.99,28.25,72.0
"2016-06-16 00:33:00",1726557,7.531,113.8,1.981,0.316,25.48,110.9764,27.4,28.36,13.87,0,111.4,12.99,28.25,75.8
"2016-06-16 00:33:30",1726558,7.309,113.3,2.507,0.263,25.5,110.9764,27.4,28.37,13.73,0,111.4,12.99,28.25,75.3
"2016-06-16 00:34:00",1726559,7.546,113.3,1.184,0.291,25.44,110.9764,27.4,28.36,13.98,0,111.4,12.99,28.25,75.3
"2016-06-16 00:34:30",1726560,7.404,108,3.656,0.301,25.44,110.9767,27.41,28.39,14.2,0,111.4,12.99,28.25,70.0
"2016-06-16 00:35:00",1726561,6.905,109.5,2.283,0.504,25.46,110.9792,27.41,28.4,14.26,0,111.4,12.99,28.26,71.5
"2016-06-16 00:35:30",1726562,7.411,107.3,3.786,0.327,25.43,110.984,27.42,28.4,14.15,0,111.4,12.99,28.27,69.3
"2016-06-16 00:36:00",1726563,7.427,108,2.971,0.431,25.38,110.984,27.42,28.4,14.22,0,111.4,12.99,28.27,70.0
"2016-06-16 00:36:30",1726564,7.066,109,2.208,0.224,25.53,110.9846,27.43,28.41,13.84,0,111.4,12.99,28.27,71.0
"2016-06-16 00:37:00",1726565,7.457,114,2.677,0.171,25.51,110.9851,27.43,28.42,13.67,0,111.4,12.99,28.27,76.0
"2016-06-16 00:37:30",1726566,7.121,111.8,1.601,0.365,25.52,110.9854,27.43,28.4,13.74,0,111.4,12.99,28.27,73.8
"2016-06-16 00:38:00",1726567,6.675,111.8,2.473,0.464,25.47,110.9876,27.43,28.42,13.79,0,111.4,12.99,28.28,73.8
"2016-06-16 00:38:30",1726568,7.516,111.8,2.792,0.178,25.49,110.9885,27.44,28.41,13.49,0,111.4,12.99,28.28,73.8
"2016-06-16 00:39:00",1726569,7.124,110.3,2.711,0.228,25.46,110.9921,27.44,28.41,13.38,0,111.4,12.99,28.29,72.3
"2016-06-16 00:39:30",1726570,7.001,110.7,4.884,0.546,25.5,110.9952,27.45,28.41,13.48,0,111.4,12.99,28.30,72.7
"2016-06-16 00:40:00",1726571,7.518,111.6,3.315,0.455,25.5,111.0025,27.47,28.44,13.43,0,111.4,12.99,28.32,73.6
"2016-06-16 00:40:30",1726572,7.681,112.9,0.994,0.158,25.58,111.005,27.48,28.43,13.04,0,111.4,12.99,28.33,74.9
"2016-06-16 00:41:00",1726573,7.142,112.1,2.984,0.287,25.55,111.0087,27.49,28.42,13,0,111.4,12.99,28.34,74.1
"2016-06-16 00:41:30",1726574,6.807,112.7,1.773,0.355,25.48,111.0095,27.49,28.44,13.03,0,111.4,12.99,28.34,74.7
"2016-06-16 00:42:00",1726575,6.707,112.9,3.389,0.225,25.51,111.0101,27.49,28.44,13.25,0,111.4,12.99,28.34,74.9
"2016-06-16 00:42:30",1726576,7.028,113.5,2.643,0.168,25.44,111.0101,27.49,28.44,13.45,0,111.4,12.99,28.34,75.5
"2016-06-16 00:43:00",1726577,6.731,109.4,1.496,0.124,25.45,111.0101,27.49,28.45,13.28,0,111.4,12.98,28.34,71.4
"2016-06-16 00:43:30",1726578,6.952,109.6,1.701,0.173,25.55,111.0101,27.49,28.45,13.19,0,111.4,12.98,28.34,71.6
"2016-06-16 00:44:00",1726579,6.88,104.2,3.956,0.248,25.44,111.0101,27.49,28.47,13.46,0,111.4,12.98,28.34,66.2
"2016-06-16 00:44:30",1726580,7.08,108.7,3.203,0.225,25.52,111.0101,27.49,28.47,13.6,0,111.4,12.98,28.34,70.7
"2016-06-16 00:45:00",1726581,7.456,113.5,2.505,0.369,25.66,111.0104,27.49,28.49,12.99,0,111.4,12.98,28.34,75.5
"2016-06-16 00:45:30",1726582,6.971,115,2.683,0.303,25.57,111.0123,27.5,28.48,12.96,0,111.4,12.98,28.34,77.0
"2016-06-16 00:46:00",1726583,6.608,113.9,3.087,0.322,25.53,111.0177,27.51,28.49,13.14,0,111.4,12.98,28.36,75.9
"2016-06-16 00:46:30",1726584,7.116,110.3,2.517,0.365,25.47,111.023,27.52,28.49,13.46,0,111.4,12.98,28.37,72.3
"2016-06-16 00:47:00",1726585,6.829,111.2,2.472,0.385,25.51,111.0253,27.53,28.5,13.41,0,111.4,12.98,28.38,73.2
"2016-06-16 00:47:30",1726586,7.193,113.5,2.82,0.238,25.44,111.0278,27.54,28.51,13.54,0,111.4,12.98,28.38,75.5
"2016-06-16 00:48:00",1726587,7.279,112.8,3.765,0.297,25.51,111.0306,27.54,28.51,13.51,0,111.4,12.98,28.39,74.8
"2016-06-16 00:48:30",1726588,7.411,112.9,3.425,0.379,25.49,111.0292,27.54,28.51,13.75,0,111.4,12.98,28.39,74.9
"2016-06-16 00:49:00",1726589,6.939,108,3.83,0.314,25.42,111.0295,27.54,28.51,14.09,0,111.4,12.99,28.39,70.0
"2016-06-16 00:49:30",1726590,7.038,112.5,7.386,0.37,25.49,111.0255,27.53,28.52,13.75,0,111.4,12.99,28.38,74.5
"2016-06-16 00:50:00",1726591,6.499,106.8,4.319,0.475,25.45,111.025,27.53,28.52,14.06,0,111.4,12.99,28.38,68.8
"2016-06-16 00:50:30",1726592,6.561,111.4,6.04,0.391,25.38,111.0185,27.51,28.52,14.16,0,111.4,12.99,28.36,73.4
"2016-06-16 00:51:00",1726593,6.745,105.1,4.564,0.28,25.48,111.0132,27.5,28.53,14.37,0,111.4,12.99,28.35,67.1
"2016-06-16 00:51:30",1726594,6.98,108.6,3.382,0.448,25.57,111.0101,27.49,28.52,14.09,0,111.4,12.99,28.34,70.6
"2016-06-16 00:52:00",1726595,7.372,111,3.359,0.465,25.62,111.0101,27.49,28.52,13.8,0,111.4,12.99,28.34,73.0
"2016-06-16 00:52:30",1726596,6.714,113.2,2.543,0.194,25.6,111.0101,27.49,28.51,13.62,0,111.4,12.99,28.34,75.2
"2016-06-16 00:53:00",1726597,7.064,106.9,2.128,0.347,25.59,111.0101,27.49,28.5,13.64,0,111.4,12.99,28.34,68.9
"2016-06-16 00:53:30",1726598,6.342,115.3,5.359,0.269,25.67,111.0101,27.49,28.5,13.33,0,111.4,12.99,28.34,77.3
"2016-06-16 00:54:00",1726599,6.825,108.5,3.322,0.216,25.59,111.0101,27.49,28.5,13.49,0,111.4,12.99,28.34,70.5
"2016-06-16 00:54:30",1726600,6.846,102.7,3.98,0.192,25.49,111.0101,27.49,28.5,14.01,0,111.4,12.99,28.34,64.7
"2016-06-16 00:55:00",1726601,7.115,100.7,2.259,0.265,25.49,111.0101,27.49,28.5,14.36,0,111.4,12.99,28.34,62.7
"2016-06-16 00:55:30",1726602,6.608,104.3,4.013,0.19,25.62,111.0101,27.49,28.5,13.97,0,111.4,12.99,28.34,66.3
"2016-06-16 00:56:00",1726603,6.772,100.5,3.491,0.257,25.52,111.0101,27.49,28.5,14.32,0,111.4,12.99,28.34,62.5
"2016-06-16 00:56:30",1726604,6.562,106.6,4.173,0.351,25.56,111.0101,27.49,28.49,14.26,0,111.4,12.99,28.34,68.6
"2016-06-16 00:57:00",1726605,6.843,103.8,3.824,0.21,25.54,111.0095,27.49,28.48,14.07,0,111.4,12.99,28.34,65.8
"2016-06-16 00:57:30",1726606,7.189,102.4,1.977,0.2,25.5,111.0079,27.49,28.49,14.66,0,111.4,12.99,28.33,64.4
"2016-06-16 00:58:00",1726607,7.08,99.2,2.447,0.273,25.51,111.005,27.48,28.49,14.87,0,111.4,12.99,28.33,61.2
"2016-06-16 00:58:30",1726608,7.023,104.1,1.613,0.256,25.59,110.9935,27.45,28.48,14.28,0,111.4,12.99,28.30,66.1
"2016-06-16 00:59:00",1726609,7.283,103.2,1.431,0.267,25.65,110.9868,27.43,28.47,14.27,0,111.4,12.99,28.28,65.2
"2016-06-16 00:59:30",1726610,7.004,103.7,1.953,0.317,25.58,110.984,27.42,28.47,14.42,0,111.4,12.99,28.27,65.7
"2016-06-16 01:00:00",1726611,7.112,105,1.212,0.234,25.64,110.9832,27.42,28.47,14.28,0,111.4,12.99,28.27,67.0
"2016-06-16 01:00:30",1726612,6.732,109.9,2.351,0.157,25.68,110.9781,27.41,28.47,14.13,0,111.4,12.98,28.26,71.9
"2016-06-16 01:01:00",1726613,6.599,106.3,2.932,0.405,25.64,110.977,27.41,28.46,14.09,0,111.4,12.98,28.25,68.3
"2016-06-16 01:01:30",1726614,6.689,105.1,2.571,0.23,25.7,110.9764,27.4,28.45,14.04,0,111.4,12.98,28.25,67.1
"2016-06-16 01:02:00",1726615,6.839,110.8,2.439,0.174,25.63,110.9764,27.4,28.45,14.07,0,111.4,12.98,28.25,72.8
"2016-06-16 01:02:30",1726616,7.276,107.2,2.812,0.264,25.64,110.9764,27.4,28.45,14.1,0,111.4,12.98,28.25,69.2
"2016-06-16 01:03:00",1726617,7.38,108.1,2.354,0.228,25.73,110.9767,27.41,28.45,14.11,0,111.4,12.98,28.25,70.1
"2016-06-16 01:03:30",1726618,7.048,114,2.711,0.304,25.69,110.9767,27.41,28.44,14.03,0,111.4,12.98,28.25,76.0
"2016-06-16 01:04:00",1726619,7.23,107.8,2.874,0.312,25.67,110.9764,27.4,28.43,14.12,0,111.4,12.98,28.25,69.8
"2016-06-16 01:04:30",1726620,7.23,111.3,1.796,0.17,25.68,110.9764,27.4,28.45,14.13,0,111.4,12.98,28.25,73.3
"2016-06-16 01:05:00",1726621,7.129,108.8,1.073,0.149,25.69,110.9773,27.41,28.43,14.16,0,111.4,12.98,28.25,70.8
"2016-06-16 01:05:30",1726622,7.526,114.5,2.825,0.174,25.75,110.9764,27.4,28.44,14.23,0,111.4,12.98,28.25,76.5
"2016-06-16 01:06:00",1726623,7.197,114.4,1.829,0.312,25.75,110.9775,27.41,28.44,14.14,0,111.4,12.99,28.25,76.4
"2016-06-16 01:06:30",1726624,7.192,112,1.267,0.193,25.7,110.9795,27.41,28.46,14.24,0,111.4,12.99,28.26,74.0
"2016-06-16 01:07:00",1726625,7.551,111.7,1.875,0.153,25.74,110.9806,27.42,28.44,14.27,0,111.4,12.99,28.26,73.7
"2016-06-16 01:07:30",1726626,7.508,113.3,1.428,0.239,25.74,110.9826,27.42,28.46,14.28,0,111.4,12.99,28.27,75.3
"2016-06-16 01:08:00",1726627,8.07,118,2.876,0.4,25.8,110.9837,27.42,28.46,14.28,0,111.4,12.99,28.27,80.0
"2016-06-16 01:08:30",1726628,8.04,116.4,2.252,0.208,25.87,110.9848,27.43,28.46,14.26,0,111.4,12.99,28.27,78.4
"2016-06-16 01:09:00",1726629,7.451,118.8,1.594,0.286,25.78,110.9862,27.43,28.45,14.29,0,111.4,12.99,28.28,80.8
"2016-06-16 01:09:30",1726630,7.27,118.6,3.284,0.423,25.77,110.9874,27.43,28.46,14.32,0,111.4,12.99,28.28,80.6
"2016-06-16 01:10:00",1726631,7.271,115.3,1.468,0.202,25.76,110.9907,27.44,28.46,14.44,0,111.4,12.99,28.29,77.3
"2016-06-16 01:10:30",1726632,7.568,120.6,1.672,0.267,25.79,110.9933,27.45,28.45,14.5,0,111.4,12.99,28.30,82.6
"2016-06-16 01:11:00",1726633,8.64,123.4,4.202,0.478,25.92,110.9994,27.46,28.47,14.49,0,111.4,12.99,28.31,85.4
"2016-06-16 01:11:30",1726634,7.736,128.1,2.271,0.461,25.95,111.0036,27.47,28.48,14.28,0,111.4,12.99,28.32,90.1
"2016-06-16 01:12:00",1726635,7.476,121.1,4.107,0.394,25.81,111.0087,27.49,28.47,14.39,0,111.4,12.99,28.34,83.1
"2016-06-16 01:12:30",1726636,7.529,119.9,5.181,0.226,25.76,111.0095,27.49,28.48,14.92,0,111.4,12.99,28.34,81.9
"2016-06-16 01:13:00",1726637,7.382,122.2,2.803,0.418,25.84,111.0098,27.49,28.47,14.54,0,111.4,12.99,28.34,84.2
"2016-06-16 01:13:30",1726638,7.7,119.8,1.552,0.364,25.78,111.0101,27.49,28.47,14.9,0,111.4,12.99,28.34,81.8
"2016-06-16 01:14:00",1726639,8.08,122.6,2.114,0.303,25.81,111.0101,27.49,28.48,15.15,0,111.4,12.99,28.34,84.6
"2016-06-16 01:14:30",1726640,7.3,125,2.679,0.346,25.84,111.0101,27.49,28.49,14.85,0,111.4,12.99,28.34,87.0
"2016-06-16 01:15:00",1726641,7.495,119.7,2.592,0.508,25.8,111.0101,27.49,28.48,15.04,0,111.4,12.99,28.34,81.7
"2016-06-16 01:15:30",1726642,7.434,125.7,4.526,0.291,25.89,111.0101,27.49,28.48,15,0,111.4,12.99,28.34,87.7
"2016-06-16 01:16:00",1726643,7.795,125.8,4.22,0.715,25.89,111.0101,27.49,28.5,14.58,0,111.4,12.99,28.34,87.8
"2016-06-16 01:16:30",1726644,7.909,128.6,2.581,0.296,25.84,111.0107,27.49,28.49,15,0,111.4,12.99,28.34,90.6
"2016-06-16 01:17:00",1726645,6.971,125.2,3.439,0.663,25.78,111.0104,27.49,28.49,15.29,0,111.4,12.99,28.34,87.2
"2016-06-16 01:17:30",1726646,7.025,129.4,4.98,0.491,25.87,111.0107,27.49,28.5,14.96,0,111.4,12.99,28.34,91.4
"2016-06-16 01:18:00",1726647,6.914,122.9,2.257,0.238,25.79,111.0101,27.49,28.51,15.15,0,111.4,12.99,28.34,84.9
"2016-06-16 01:18:30",1726648,6.948,122,4.996,0.466,25.78,111.0104,27.49,28.5,15.23,0,111.4,12.99,28.34,84.0
"2016-06-16 01:19:00",1726649,6.816,124.9,4.379,0.514,25.82,111.0107,27.49,28.49,15.42,0,111.4,12.98,28.34,86.9
"2016-06-16 01:19:30",1726650,7.125,125.3,3.188,0.219,25.77,111.0101,27.49,28.5,15.37,0,111.4,12.98,28.34,87.3
"2016-06-16 01:20:00",1726651,6.823,126.9,3.395,0.281,25.9,111.0113,27.49,28.5,15.21,0,111.4,12.98,28.34,88.9
"2016-06-16 01:20:30",1726652,7.334,129.9,2.97,0.538,25.92,111.0117,27.49,28.5,14.96,0,111.4,12.98,28.34,91.9
"2016-06-16 01:21:00",1726653,7.515,124.6,4.332,0.719,25.91,111.0129,27.5,28.51,15.11,0,111.4,12.98,28.35,86.6
"2016-06-16 01:21:30",1726654,6.971,123.2,2.702,0.31,25.74,111.0132,27.5,28.51,15.36,0,111.4,12.98,28.35,85.2
"2016-06-16 01:22:00",1726655,7.433,121.2,4.805,0.297,25.72,111.0132,27.5,28.51,15.61,0,111.4,12.98,28.35,83.2
"2016-06-16 01:22:30",1726656,6.635,128.7,2.821,0.325,25.74,111.0154,27.5,28.51,15.74,0,111.4,12.98,28.35,90.7
"2016-06-16 01:23:00",1726657,6.023,138.6,9.05,0.424,25.94,111.0125,27.5,28.51,15.4,0,111.4,12.99,28.34,100.6
"2016-06-16 01:23:30",1726658,6.392,135.4,4.398,0.809,25.89,111.014,27.5,28.51,14.92,0,111.4,12.99,28.35,97.4
"2016-06-16 01:24:00",1726659,6.35,125.4,5.381,0.728,25.82,111.0064,27.48,28.5,15.26,0,111.4,12.99,28.33,87.4
"2016-06-16 01:24:30",1726660,6.133,125.8,6.722,0.471,25.72,111.0041,27.48,28.5,15.52,0,111.4,12.99,28.32,87.8
"2016-06-16 01:25:00",1726661,6.368,125.6,6.091,0.611,25.78,110.9996,27.46,28.49,15.54,0,111.4,12.99,28.31,87.6
"2016-06-16 01:25:30",1726662,6.349,121.3,3.348,0.621,25.77,110.9949,27.45,28.49,15.58,0,111.4,12.99,28.30,83.3
"2016-06-16 01:26:00",1726663,6.735,122.1,1.711,0.303,25.69,110.9957,27.45,28.48,15.81,0,111.4,12.99,28.30,84.1
"2016-06-16 01:26:30",1726664,6.837,121.7,2.191,0.442,25.76,110.9956,27.45,28.48,15.81,0,111.4,12.99,28.30,83.7
"2016-06-16 01:27:00",1726665,6.382,120,3.997,0.514,25.78,110.9933,27.45,28.48,15.83,0,111.4,12.99,28.30,82.0
"2016-06-16 01:27:30",1726666,6.569,122.2,3.522,0.373,25.8,110.9901,27.44,28.48,15.85,0,111.4,12.99,28.29,84.2
"2016-06-16 01:28:00",1726667,6.575,127.3,4.305,0.606,25.76,110.9911,27.44,28.46,15.91,0,111.4,12.99,28.29,89.3
"2016-06-16 01:28:30",1726668,6.127,132.4,5.538,0.396,25.74,110.992,27.44,28.47,15.94,0,111.4,12.99,28.29,94.4
"2016-06-16 01:29:00",1726669,7.037,128.5,6.611,0.942,25.77,110.9973,27.46,28.45,15.83,0,111.4,12.99,28.31,90.5
"2016-06-16 01:29:30",1726670,6.595,126.8,6.697,0.511,25.73,110.9957,27.45,28.44,15.97,0,111.4,12.99,28.30,88.8
"2016-06-16 01:30:00",1726671,6.379,126.9,3.612,0.327,25.68,110.9941,27.45,28.43,16.01,0,111.4,12.99,28.30,88.9
"2016-06-16 01:30:30",1726672,5.981,130.5,4.021,0.343,25.65,110.9789,27.41,28.43,16.15,0,111.4,12.99,28.26,92.5
"2016-06-16 01:31:00",1726673,5.96,128.6,6.265,0.853,25.69,110.9748,27.4,28.43,16.2,0,111.4,12.99,28.25,90.6
"2016-06-16 01:31:30",1726674,5.465,137.1,6.789,0.685,25.78,110.9674,27.38,28.42,15.78,0,111.4,12.99,28.23,99.1
"2016-06-16 01:32:00",1726675,6.118,133.4,11.6,0.842,25.73,110.9661,27.38,28.41,16.1,0,111.4,12.99,28.23,95.4
"2016-06-16 01:32:30",1726676,5.508,130.8,9.08,0.884,25.74,110.9674,27.38,28.41,15.9,0,111.4,12.99,28.23,92.8
"2016-06-16 01:33:00",1726677,6.504,123.5,7.131,0.534,25.72,110.9677,27.38,28.41,16.09,0,111.4,12.99,28.23,85.5
"2016-06-16 01:33:30",1726678,6.601,125.1,2.469,0.679,25.75,110.9683,27.38,28.39,16.28,0,111.4,12.99,28.23,87.1
"2016-06-16 01:34:00",1726679,7.256,131.7,3.298,0.397,25.75,110.9656,27.38,28.38,16.26,0,111.4,12.99,28.22,93.7
"2016-06-16 01:34:30",1726680,6.735,121.5,2.658,0.546,25.72,110.9491,27.33,28.37,16.56,0,111.4,12.99,28.18,83.5
"2016-06-16 01:35:00",1726681,5.894,131.4,2.661,0.236,25.68,110.9407,27.31,28.36,16.6,0,111.4,12.99,28.16,93.4
"2016-06-16 01:35:30",1726682,5.584,120.3,4.353,0.319,25.68,110.9371,27.3,28.35,16.7,0,111.4,12.99,28.15,82.3
"2016-06-16 01:36:00",1726683,6.506,119.5,4.965,0.546,25.71,110.9371,27.3,28.34,16.71,0,111.4,12.99,28.15,81.5
"2016-06-16 01:36:30",1726684,5.894,121.4,2.931,0.794,25.7,110.936,27.3,28.33,16.75,0,111.4,12.99,28.15,83.4
"2016-06-16 01:37:00",1726685,6.04,126.2,4.963,1.311,25.62,110.9217,27.26,28.32,16.94,0,111.4,12.99,28.11,88.2
"2016-06-16 01:37:30",1726686,7.328,129.1,5.643,0.512,25.86,110.911,27.24,28.3,16.52,0,111.4,12.99,28.08,91.1
"2016-06-16 01:38:00",1726687,6.623,133.6,6.666,0.304,25.77,110.9056,27.22,28.27,16.49,0,111.4,12.99,28.07,95.6
"2016-06-16 01:38:30",1726688,7.692,135.8,5.944,0.521,25.76,110.9034,27.22,28.27,16.65,0,111.4,12.99,28.06,97.8
"2016-06-16 01:39:00",1726689,7.002,134.6,2.57,0.441,25.77,110.9056,27.22,28.25,16.8,0,111.4,12.99,28.07,96.6
"2016-06-16 01:39:30",1726690,6.51,148.6,9.81,0.882,25.85,110.904,27.22,28.24,16.39,0,111.4,12.99,28.06,110.6
"2016-06-16 01:40:00",1726691,6.514,138.5,13.81,0.652,25.85,110.8924,27.19,28.23,16.22,0,111.4,12.99,28.04,100.5
"2016-06-16 01:40:30",1726692,6.783,139,6.376,0.316,25.85,110.8832,27.16,28.21,16.07,0,111.4,12.99,28.01,101.0
"2016-06-16 01:41:00",1726693,6.408,142.6,5.304,0.378,25.77,110.8809,27.16,28.19,16.35,0,111.4,12.99,28.01,104.6
"2016-06-16 01:41:30",1726694,6.43,132.9,4.234,1.172,25.64,110.8753,27.14,28.18,16.76,0,111.4,12.99,27.99,94.9
"2016-06-16 01:42:00",1726695,6.578,135.2,3.316,0.619,25.69,110.8785,27.15,28.17,16.82,0,111.4,12.99,28.00,97.2
"2016-06-16 01:42:30",1726696,7.835,144.4,11.16,0.937,25.92,110.8763,27.15,28.16,16.25,0,111.4,12.99,27.99,106.4
"2016-06-16 01:43:00",1726697,7.779,141,8.31,0.749,25.8,110.874,27.14,28.15,16.35,0,111.4,12.99,27.99,103.0
"2016-06-16 01:43:30",1726698,7.077,136,6.632,0.664,25.81,110.8687,27.13,28.13,16.39,0,111.4,12.99,27.97,98.0
"2016-06-16 01:44:00",1726699,6.535,145.2,10.84,0.492,25.76,110.8577,27.1,28.11,16.4,0,111.4,13,27.95,107.2
"2016-06-16 01:44:30",1726700,7.274,135,4.923,0.383,25.65,110.8482,27.07,28.12,17.11,0,111.4,12.99,27.92,97.0
"2016-06-16 01:45:00",1726701,5.871,141.8,7.574,0.825,25.73,110.8451,27.07,28.09,17,0,111.4,13,27.91,103.8
"2016-06-16 01:45:30",1726702,6.948,148,5.502,0.742,25.88,110.8454,27.07,28.09,16.09,0,111.4,12.99,27.91,110.0
"2016-06-16 01:46:00",1726703,6.238,143.6,13.98,0.725,25.67,110.8454,27.07,28.09,16.58,0,111.4,13,27.91,105.6
"2016-06-16 01:46:30",1726704,6.416,150.3,14.84,0.806,25.74,110.8389,27.05,28.06,16.87,0,111.4,13,27.90,112.3
"2016-06-16 01:47:00",1726705,5.989,153.7,5.363,0.457,25.71,110.8227,27.01,28.05,16.67,0,111.4,13,27.86,115.7
"2016-06-16 01:47:30",1726706,6.35,138.3,6.728,0.828,25.64,110.814,26.99,28.04,16.9,0,111.4,13,27.83,100.3